FW2458 Weather Reports


Display with metric or nautical units.
time (UTC)temp
F
wind
direction
speed
MPH
gust
MPH
rain 1hr
in
rain 24hr
in
rain mn
in
humidity
%
barometer
mb
20260905182711 78 180 1.0 4.0 0.00 0.00 0.00 60 1010.8
20260905182213 78 178 1.0 4.0 0.00 0.00 0.00 63 1010.8
20260905181712 78 80 2.0 4.0 0.00 0.00 0.00 64 1010.7
20260905181209 78 79 1.0 4.0 0.00 0.00 0.00 62 1010.8
20260905180717 77 111 1.0 4.0 0.00 0.00 0.00 66 1010.9
20260905180711 77 188 1.0 4.0 0.00 0.00 0.00 63 1010.8
20260905175707 76 86 1.0 4.0 0.00 0.00 0.00 64 1011.0
20260905175207 77 86 1.0 5.0 0.00 0.00 0.00 62 1011.0
20260905174707 78 86 1.0 5.0 0.00 0.00 0.00 61 1011.0
20260905174209 78 174 2.0 5.0 0.00 0.00 0.00 61 1010.9
20260905173706 78 53 2.0 5.0 0.00 0.00 0.00 60 1011.0
20260905173208 78 57 1.0 4.0 0.00 0.00 0.00 63 1011.0
20260905172708 77 98 1.0 4.0 0.00 0.00 0.00 66 1011.0
20260905172208 77 164 1.0 4.0 0.00 0.00 0.00 65 1011.1
20260905171929 77 164 2.0 4.0 0.00 0.00 0.00 63 1011.2
20260905171425 77 202 2.0 4.0 0.00 0.00 0.00 62 1011.3
20260905170708 78 192 1.0 4.0 0.00 0.00 0.00 62 1011.3
20260905170207 77 44 2.0 4.0 0.00 0.00 0.00 64 1011.4
20260905165922 77 56 2.0 4.0 0.00 0.00 0.00 63 1011.4
20260905165207 77 84 1.0 4.0 0.00 0.00 0.00 64 1011.3
20260905164708 77 129 1.0 3.0 0.00 0.00 0.00 64 1011.3
20260905164206 77 123 1.0 4.0 0.00 0.00 0.00 66 1011.5
20260905163705 77 115 1.0 4.0 0.00 0.00 0.00 65 1011.4
20260905163207 77 163 1.0 4.0 0.00 0.00 0.00 65 1011.5
20260905162707 77 178 1.0 4.0 0.00 0.00 0.00 63 1011.5
20260905162205 76 158 2.0 7.0 0.00 0.00 0.00 67 1011.5
20260905161707 76 69 2.0 7.0 0.00 0.00 0.00 64 1011.5
20260905161206 75 78 1.0 4.0 0.00 0.00 0.00 68 1011.5
20260905160707 75 82 1.0 4.0 0.00 0.00 0.00 69 1011.4
20260905160205 75 86 1.0 3.0 0.00 0.00 0.00 70 1011.5
20260905155705 74 86 1.0 3.0 0.00 0.00 0.00 70 1011.4
20260905155426 74 86 1.0 4.0 0.00 0.00 0.00 69 1011.4
20260905154707 75 70 1.0 4.0 0.00 0.00 0.00 68 1011.4
20260905154205 75 72 1.0 4.0 0.00 0.00 0.00 67 1011.4
20260905153705 75 90 1.0 4.0 0.00 0.00 0.00 67 1011.4
20260905153204 75 44 1.0 4.0 0.00 0.00 0.00 68 1011.3
20260905152704 75 57 1.0 4.0 0.00 0.00 0.00 66 1011.4
20260905152203 75 86 1.0 4.0 0.00 0.00 0.00 70 1011.4
20260905151702 76 55 1.0 4.0 0.00 0.00 0.00 68 1011.5
20260905151203 76 29 1.0 5.0 0.00 0.00 0.00 67 1011.5
20260905150703 76 210 2.0 5.0 0.00 0.00 0.00 65 1011.3
20260905150202 76 81 1.0 5.0 0.00 0.00 0.00 66 1011.4
20260905145701 76 111 2.0 5.0 0.00 0.00 0.00 68 1011.5
20260905145158 75 86 2.0 9.0 0.00 0.00 0.00 67 1011.4
20260905144655 75 58 2.0 9.0 0.00 0.00 0.00 66 1011.4
20260905144638 75 98 2.0 9.0 0.00 0.00 0.00 65 1011.5
20260905143655 76 24 1.0 9.0 0.00 0.00 0.00 65 1011.5
20260905143153 76 167 1.0 8.0 0.00 0.00 0.00 67 1011.4
20260905142654 75 71 2.0 8.0 0.00 0.00 0.00 69 1011.3
20260905142154 76 34 2.0 8.0 0.00 0.00 0.00 67 1011.4
20260905141655 76 69 1.0 4.0 0.00 0.00 0.00 68 1011.2
20260905141149 76 65 2.0 5.0 0.00 0.00 0.00 67 1011.3
20260905140639 76 30 2.0 5.0 0.00 0.00 0.00 69 1011.3
20260905140134 75 97 2.0 5.0 0.00 0.00 0.00 70 1011.1
20260905135627 75 22 2.0 6.0 0.00 0.00 0.00 68 1011.0
20260905135131 75 168 2.0 6.0 0.00 0.00 0.00 70 1011.1
20260905134611 74 80 2.0 7.0 0.00 0.00 0.00 71 1011.1
20260905134118 74 133 2.0 7.0 0.00 0.00 0.00 71 1011.1
20260905133555 74 69 3.0 7.0 0.00 0.00 0.00 72 1011.1
20260905133531 73 84 3.0 7.0 0.00 0.00 0.00 71 1011.1
20260905132543 73 70 2.0 7.0 0.00 0.00 0.00 74 1011.1
20260905132033 73 58 2.0 7.0 0.00 0.00 0.00 74 1011.3
20260905131752 73 75 2.0 5.0 0.00 0.00 0.00 73 1011.3
20260905131034 73 83 1.0 4.0 0.00 0.00 0.00 73 1011.3
20260905130729 73 64 2.0 4.0 0.00 0.00 0.00 73 1011.3
20260905130005 73 65 2.0 4.0 0.00 0.00 0.00 74 1011.3
20260905125459 73 55 1.0 4.0 0.00 0.00 0.00 76 1011.5
20260905124948 72 227 0.0 3.0 0.00 0.00 0.00 77 1011.5
20260905124926 71 172 0.0 3.0 0.00 0.00 0.00 78 1011.5
20260905124202 71 169 0.0 4.0 0.00 0.00 0.00 78 1011.6
20260905123440 70 169 1.0 4.0 0.00 0.00 0.00 80 1011.6
20260905122942 69 74 1.0 4.0 0.00 0.00 0.00 79 1011.6
20260905122445 69 74 0.0 3.0 0.00 0.00 0.00 81 1011.6
20260905121944 68 74 0.0 3.0 0.00 0.00 0.00 81 1011.6
20260905121442 68 74 0.0 3.0 0.00 0.00 0.00 82 1011.7
20260905120940 68 74 0.0 3.0 0.00 0.00 0.00 81 1011.7
20260905120438 67 97 0.0 6.0 0.00 0.00 0.00 82 1011.6
20260905115940 67 94 0.0 6.0 0.00 0.00 0.00 82 1011.6
20260905115440 67 94 1.0 6.0 0.00 0.00 0.00 82 1011.7
20260905114938 67 94 1.0 6.0 0.00 0.00 0.00 82 1011.5
20260905114439 67 84 1.0 3.0 0.00 0.00 0.00 83 1011.4
20260905114202 66 90 0.0 3.0 0.00 0.00 0.00 83 1011.5
20260905113440 66 78 0.0 2.0 0.00 0.00 0.00 84 1011.4
20260905112933 66 76 0.0 4.0 0.00 0.00 0.00 84 1011.3
20260905112428 65 76 0.0 3.0 0.00 0.00 0.00 84 1011.4
20260905111918 65 65 0.0 2.0 0.00 0.00 0.00 84 1011.2
20260905111412 65 65 0.0 1.0 0.00 0.00 0.00 84 1011.2
20260905110906 65 65 0.0 1.0 0.00 0.00 0.00 85 1011.1
20260905110619 65 65 0.0 0.0 0.00 0.00 0.00 84 1011.0
20260905105850 66 65 0.0 0.0 0.00 0.00 0.00 84 1010.9
20260905105345 66 65 0.0 0.0 0.00 0.00 0.00 83 1010.7
20260905104328 66 65 0.0 0.0 0.00 0.00 0.00 82 1010.6
20260905103822 67 65 0.0 0.0 0.00 0.00 0.00 81 1010.6
20260905103312 67 65 0.0 0.0 0.00 0.00 0.00 81 1010.7
20260905102806 67 65 0.0 0.0 0.00 0.00 0.00 81 1010.7
20260905102259 68 65 0.0 0.0 0.00 0.00 0.00 80 1010.8
20260905101750 68 65 0.0 0.0 0.00 0.00 0.00 79 1010.8
20260905101731 68 65 0.0 0.0 0.00 0.00 0.00 78 1010.6
20260905100738 68 64 0.0 0.0 0.00 0.00 0.00 78 1010.6
20260905100443 68 64 0.0 5.0 0.00 0.00 0.00 78 1010.6
20260905095725 68 64 0.0 5.0 0.00 0.00 0.00 78 1010.5
20260905095216 68 64 0.0 5.0 0.00 0.00 0.00 78 1010.4
20260905094706 68 40 0.0 5.0 0.00 0.00 0.00 78 1010.5
20260905094200 68 71 0.0 0.0 0.00 0.00 0.00 77 1010.4
20260905093700 68 71 0.0 0.0 0.00 0.00 0.00 77 1010.3
20260905093421 68 71 0.0 2.0 0.00 0.00 0.00 77 1010.3
20260905092700 68 71 0.0 2.0 0.00 0.00 0.00 77 1010.3
20260905092157 68 71 0.0 4.0 0.00 0.00 0.00 76 1010.3
20260905091658 69 71 1.0 4.0 0.00 0.00 0.00 76 1010.3
20260905091156 69 73 0.0 3.0 0.00 0.00 0.00 76 1010.3
20260905090655 69 71 0.0 1.0 0.00 0.00 0.00 76 1010.2
20260905090156 69 71 0.0 6.0 0.00 0.00 0.00 76 1010.3
20260905085920 69 71 0.0 6.0 0.00 0.00 0.00 76 1010.2
20260905085154 69 61 0.0 6.0 0.00 0.00 0.00 75 1010.3
20260905084703 69 61 0.0 6.0 0.00 0.00 0.00 75 1010.2
20260905084152 69 51 0.0 0.0 0.00 0.00 0.00 75 1010.3
20260905083652 69 51 0.0 0.0 0.00 0.00 0.00 75 1010.3
20260905083154 69 51 0.0 0.0 0.00 0.00 0.00 75 1010.4
20260905082648 69 51 0.0 0.0 0.00 0.00 0.00 74 1010.3
20260905082142 70 51 0.0 0.0 0.00 0.00 0.00 74 1010.3
20260905081641 70 51 0.0 0.0 0.00 0.00 0.00 74 1010.3
20260905081141 70 51 0.0 0.0 0.00 0.00 0.00 74 1010.3
20260905080645 70 51 0.0 0.0 0.00 0.00 0.00 74 1010.4
20260905080142 70 51 0.0 0.0 0.00 0.00 0.00 74 1010.4
20260905075641 70 51 0.0 0.0 0.00 0.00 0.00 74 1010.4
20260905075141 70 51 0.0 0.0 0.00 0.00 0.00 74 1010.4
20260905074641 70 51 0.0 0.0 0.00 0.00 0.00 73 1010.3
20260905074140 70 51 0.0 0.0 0.00 0.00 0.00 73 1010.3
20260905073900 70 46 0.0 0.0 0.00 0.00 0.00 73 1010.5
20260905073140 70 46 0.0 0.0 0.00 0.00 0.00 73 1010.3
20260905072642 70 46 0.0 0.0 0.00 0.00 0.00 73 1010.3
20260905072140 71 46 0.0 1.0 0.00 0.00 0.00 73 1010.5
20260905071859 71 46 0.0 1.0 0.00 0.00 0.00 73 1010.6
20260905071137 71 46 0.0 1.0 0.00 0.00 0.00 73 1010.5
20260905070645 71 46 0.0 3.0 0.00 0.00 0.00 72 1010.5
20260905070126 71 46 0.0 3.0 0.00 0.00 0.00 72 1010.5
20260905065627 71 46 0.0 3.0 0.00 0.00 0.00 72 1010.5
20260905065125 71 46 0.0 3.0 0.00 0.00 0.00 72 1010.4
20260905064624 71 158 0.0 3.0 0.00 0.00 0.00 71 1010.5
20260905064121 71 157 0.0 3.0 0.00 0.01 0.00 72 1010.5
20260905063619 71 163 0.0 2.0 0.00 0.01 0.00 72 1010.6
20260905063133 71 165 0.0 2.0 0.00 0.01 0.00 71 1010.5
20260905062617 71 165 0.0 3.0 0.00 0.01 0.00 71 1010.5
20260905062117 71 166 0.0 3.0 0.00 0.03 0.00 72 1010.7
20260905061618 71 170 0.0 3.0 0.00 0.06 0.00 71 1010.7
20260905061345 71 153 0.0 3.0 0.00 0.11 0.00 72 1010.7
20260905060614 71 153 0.0 4.0 0.00 0.11 0.00 72 1010.7
20260905060118 71 153 0.0 4.0 0.00 0.11 0.00 72 1010.8
20260905055610 71 75 0.0 2.0 0.00 0.11 0.00 73 1010.8
20260905055110 71 75 0.0 2.0 0.00 0.11 0.00 72 1010.9
20260905054613 71 75 0.0 2.0 0.00 0.11 0.00 72 1010.8
20260905054103 71 73 0.0 1.0 0.00 0.11 0.00 72 1010.8
20260905053604 71 73 0.0 1.0 0.00 0.11 0.00 73 1010.8
20260905053102 71 73 0.0 1.0 0.00 0.11 0.00 73 1010.9
20260905052609 71 73 0.0 1.0 0.00 0.11 0.00 73 1011.0
20260905052101 71 73 0.0 1.0 0.00 0.11 0.00 73 1011.1
20260905051558 71 73 0.0 1.0 0.00 0.11 0.00 73 1011.3
20260905051319 72 73 0.0 1.0 0.00 0.11 0.00 73 1011.3
20260905050557 72 73 0.0 1.0 0.00 0.11 0.00 73 1011.3
20260905050056 72 73 0.0 1.0 0.00 0.11 0.00 73 1011.3
20260905045558 72 73 0.0 0.0 0.00 0.11 0.00 74 1011.3
20260905045057 72 73 0.0 0.0 0.00 0.11 0.00 74 1011.3
20260905044559 72 73 0.0 0.0 0.00 0.11 0.00 74 1011.4
20260905044058 72 73 0.0 0.0 0.00 0.11 0.00 74 1011.4
20260905043557 72 73 0.0 0.0 0.00 0.11 0.00 74 1011.4
20260905043058 72 73 0.0 1.0 0.00 0.11 0.00 74 1011.4
20260905042818 72 73 0.0 1.0 0.00 0.11 0.00 74 1011.6
20260905042055 72 73 0.0 1.0 0.00 0.11 0.00 74 1011.5
20260905041556 72 73 0.0 1.0 0.00 0.11 0.00 74 1011.5
20260905041055 72 73 0.0 1.0 0.00 0.11 0.00 74 1011.5
20260905040322 72 73 0.0 1.0 0.00 0.11 0.00 74 1011.4
20260905035552 73 73 0.0 1.0 0.00 0.11 0.11 74 1011.5
20260905035314 73 73 0.0 2.0 0.00 0.11 0.11 74 1011.6
20260905034557 73 73 0.0 2.0 0.00 0.11 0.11 74 1011.5
20260905034051 73 73 0.0 2.0 0.00 0.11 0.11 74 1011.5
20260905033553 73 73 0.0 2.0 0.00 0.11 0.11 74 1011.6
20260905033053 73 72 0.0 2.0 0.00 0.11 0.11 74 1011.5
20260905032550 73 72 0.0 2.0 0.00 0.11 0.11 74 1011.5
20260905032050 73 72 0.0 2.0 0.00 0.11 0.11 74 1011.5
20260905031549 73 73 0.0 0.0 0.00 0.11 0.11 74 1011.4
20260905031048 73 73 0.0 0.0 0.00 0.11 0.11 74 1011.4
20260905030546 73 73 0.0 0.0 0.00 0.11 0.11 74 1011.3
20260905030112 72 73 0.0 0.0 0.00 0.11 0.11 75 1011.4
20260905030054 72 73 0.0 0.0 0.00 0.11 0.11 75 1011.3
20260905025042 72 73 0.0 0.0 0.00 0.11 0.11 75 1011.4
20260905024540 72 73 0.0 1.0 0.00 0.11 0.11 75 1011.3
20260905024040 72 73 0.0 1.0 0.00 0.11 0.11 76 1011.3
20260905023756 72 73 0.0 1.0 0.00 0.11 0.11 76 1011.2
20260905022535 71 74 0.0 1.0 0.00 0.11 0.11 78 1011.5
20260905022251 71 74 0.0 1.0 0.00 0.11 0.11 79 1011.4
20260905021757 70 74 0.0 1.0 0.00 0.11 0.11 80 1011.4
20260905021030 70 74 0.0 1.0 0.00 0.11 0.11 81 1011.4
20260905020524 70 74 0.0 0.0 0.00 0.11 0.11 81 1011.4
20260905020025 69 74 0.0 0.0 0.00 0.11 0.11 82 1011.5
20260905015524 69 74 0.0 0.0 0.00 0.11 0.11 83 1011.5
20260905015242 69 74 0.0 0.0 0.00 0.11 0.11 83 1011.6
20260905014018 70 74 0.0 0.0 0.00 0.11 0.11 82 1011.5
20260905013517 70 74 0.0 0.0 0.00 0.11 0.11 81 1011.6
20260905013014 70 74 0.0 0.0 0.00 0.11 0.11 82 1011.6
20260905012513 69 74 0.0 0.0 0.00 0.11 0.11 82 1011.5
20260905012013 70 74 0.0 0.0 0.00 0.11 0.11 82 1011.6
20260905011512 70 74 0.0 0.0 0.00 0.11 0.11 82 1011.5
20260905011459 70 74 0.0 0.0 0.00 0.11 0.11 82 1011.4
20260905010744 70 74 0.0 0.0 0.00 0.11 0.11 82 1011.4
20260905010007 70 74 0.0 0.0 0.00 0.11 0.11 83 1011.5
20260905005521 70 74 0.0 0.0 0.00 0.11 0.11 83 1011.5
20260905004958 71 74 0.0 0.0 0.00 0.11 0.11 83 1011.5
20260905004452 71 74 0.0 0.0 0.00 0.11 0.11 82 1011.5
20260905003946 71 74 0.0 0.0 0.00 0.11 0.11 82 1011.6
20260905003437 71 74 0.0 0.0 0.00 0.11 0.11 82 1011.4
20260905002931 72 74 0.0 0.0 0.00 0.11 0.11 81 1011.6
20260905002424 72 74 0.0 0.0 0.00 0.11 0.11 80 1011.4
20260905001914 72 74 0.0 0.0 0.00 0.11 0.11 80 1011.4
20260905001408 73 74 0.0 0.0 0.00 0.11 0.11 80 1011.2
20260905001131 73 74 0.0 0.0 0.00 0.11 0.11 80 1011.3
20260905000355 73 74 0.0 0.0 0.00 0.11 0.11 79 1011.2
20260905000104 74 74 0.0 0.0 0.00 0.11 0.11 78 1011.1
20260904235607 74 74 0.0 0.0 0.00 0.11 0.11 78 1011.1
20260904234838 74 74 0.0 0.0 0.00 0.11 0.11 77 1011.1
20260904234338 75 74 0.0 0.0 0.00 0.11 0.11 76 1011.1
20260904233834 75 74 0.0 0.0 0.00 0.11 0.11 76 1011.0
20260904233332 76 74 0.0 0.0 0.00 0.11 0.11 75 1011.0
20260904233101 76 74 0.0 0.0 0.00 0.11 0.11 75 1011.1
20260904232333 76 74 0.0 0.0 0.00 0.11 0.11 74 1011.1
20260904232051 77 74 0.0 0.0 0.00 0.11 0.11 73 1011.1
20260904231328 77 74 0.0 0.0 0.00 0.11 0.11 72 1011.0
20260904230829 77 74 0.0 0.0 0.00 0.11 0.11 72 1011.1
20260904230330 78 74 0.0 0.0 0.00 0.11 0.11 71 1011.0
20260904225827 78 74 0.0 1.0 0.00 0.11 0.11 70 1011.0
20260904225806 78 74 0.0 1.0 0.00 0.11 0.11 69 1011.0
20260904225040 79 74 0.0 1.0 0.00 0.11 0.11 69 1011.1
20260904224807 79 74 0.0 2.0 0.00 0.11 0.11 67 1011.0
20260904223824 79 74 0.0 2.0 0.00 0.11 0.11 67 1011.2
20260904223557 79 74 0.0 2.0 0.00 0.11 0.11 66 1011.1
20260904222821 80 74 0.0 2.0 0.00 0.11 0.11 66 1011.2
20260904222321 80 74 0.0 1.0 0.00 0.11 0.11 66 1011.2
20260904221822 80 74 0.0 2.0 0.00 0.11 0.11 65 1011.2
20260904221543 80 74 1.0 2.0 0.00 0.11 0.11 65 1011.2
20260904221039 80 74 0.0 3.0 0.00 0.11 0.11 64 1011.3
20260904220318 80 74 0.0 3.0 0.00 0.11 0.11 64 1011.2
20260904215819 80 74 0.0 4.0 0.00 0.11 0.11 64 1011.1
20260904215552 81 74 0.0 4.0 0.00 0.11 0.11 64 1011.1
20260904214817 81 74 0.0 4.0 0.00 0.11 0.11 63 1010.9
20260904214316 81 74 1.0 4.0 0.00 0.11 0.11 63 1011.1
20260904213817 81 73 1.0 3.0 0.00 0.11 0.11 64 1011.1
20260904213319 81 64 1.0 3.0 0.00 0.11 0.11 63 1011.0
20260904212818 81 73 1.0 3.0 0.00 0.11 0.11 63 1011.0
20260904212314 81 74 1.0 3.0 0.00 0.11 0.11 62 1010.8
20260904211812 82 117 1.0 5.0 0.00 0.11 0.11 63 1010.8
20260904211306 82 155 1.0 5.0 0.00 0.11 0.11 62 1010.9
20260904211027 82 86 1.0 5.0 0.00 0.11 0.11 62 1010.8
20260904210306 82 48 2.0 5.0 0.00 0.11 0.11 61 1010.7
20260904205801 82 69 1.0 5.0 0.00 0.11 0.11 61 1010.8
20260904205305 82 101 1.0 4.0 0.00 0.11 0.11 62 1010.9
20260904204802 82 109 2.0 7.0 0.00 0.11 0.11 61 1011.0
20260904204306 82 95 2.0 7.0 0.00 0.11 0.11 61 1011.1
20260904203804 82 73 2.0 5.0 0.00 0.11 0.11 61 1011.1
20260904203526 82 67 2.0 5.0 0.00 0.11 0.11 62 1011.2
20260904202801 82 80 2.0 4.0 0.00 0.11 0.11 62 1011.3
20260904202745 82 55 1.0 4.0 0.00 0.11 0.11 60 1011.2
20260904201812 83 81 1.0 4.0 0.00 0.11 0.11 63 1011.3
20260904201258 83 101 1.0 4.0 0.00 0.11 0.11 63 1011.3
20260904200756 83 249 1.0 10.0 0.00 0.11 0.11 61 1011.3
20260904200257 83 232 1.0 10.0 0.00 0.11 0.11 58 1011.3
20260904200025 84 110 2.0 10.0 0.00 0.11 0.11 59 1011.3
20260904195252 85 212 2.0 10.0 0.00 0.11 0.11 58 1011.3
20260904195006 85 219 2.0 5.0 0.00 0.11 0.11 57 1011.4
20260904194236 85 199 1.0 5.0 0.00 0.11 0.11 59 1011.3
20260904193729 85 63 1.0 5.0 0.00 0.11 0.11 56 1011.4
20260904193223 85 80 2.0 5.0 0.00 0.11 0.11 58 1011.5
20260904192714 85 309 2.0 6.0 0.00 0.11 0.11 58 1011.6
20260904192208 85 217 1.0 6.0 0.00 0.11 0.11 59 1011.5
20260904191702 85 179 1.0 4.0 0.00 0.11 0.11 58 1011.5
20260904191152 84 51 2.0 4.0 0.00 0.11 0.11 60 1011.5
20260904190647 84 176 2.0 9.0 0.00 0.11 0.11 58 1011.5
20260904190145 84 128 2.0 9.0 0.00 0.11 0.11 60 1011.8
20260904185642 84 71 2.0 9.0 0.00 0.11 0.11 60 1011.8
20260904185141 84 209 2.0 9.0 0.00 0.11 0.11 59 1011.9
20260904184654 84 62 1.0 5.0 0.00 0.11 0.11 61 1012.0
20260904184140 84 160 1.0 5.0 0.00 0.11 0.11 59 1012.0
20260904183827 84 188 1.0 5.0 0.00 0.11 0.11 60 1012.0
20260904183140 84 210 1.0 4.0 0.00 0.11 0.11 60 1012.0